Regional Weather Roundup
Issued by NWS

Home | Current Version | Previous Version | Graphics & Text | Print | Product List | Glossary On
Versions: 1 2 3 4 5 6 7 8 9 10 11 12 13 14 15 16 17 18 19 20 21 22 23 24 25 26 27 28 29 30 31 32 33 34 35 36 37 38 39 40 41 42 43 44 45 46 47 48 49 50
000
ASUS43 KTOP 281308
RWRKS

WEATHER ROUNDUP FOR KANSAS
NATIONAL WEATHER SERVICE GOODLAND KS
700 AM CST FRI NOV 28 2014

NOTE:  "FAIR" INDICATES FEW OR NO CLOUDS BELOW 12,000 FEET WITH NO
SIGNIFICANT WEATHER AND/OR OBSTRUCTIONS TO VISIBILITY.

KSZ001>006-013>018-027>032-041>047-281400-
NORTHWEST KANSAS

CITY           SKY/WX    TMP DP  RH WIND       PRES   REMARKS
GOODLAND       CLEAR     41  21  44 W12       29.93F
HAYS           PTCLDY    30  19  64 W6        29.91F
HILL CITY      PTCLDY    33  23  66 CALM      29.90F
RUSSELL        PTCLDY    33  27  78 SW9       29.90F
$$

KSZ061>065-074>080-084>089-281400-
SOUTHWEST KANSAS

CITY           SKY/WX    TMP DP  RH WIND       PRES   REMARKS
DODGE CITY     PTCLDY    32  25  75 SW7       29.96F
ELKHART          N/A     44  19  36 SW9         N/A
GARDEN CITY    PTCLDY    29  24  82 W7        29.95F
GREAT BEND     PTCLDY    32  23  69 SW7       29.96F
LIBERAL        CLEAR     28  21  74 SW7       30.00R
PRATT          PTCLDY    32  28  86 SW8       29.97F
$$

KSZ066>073-081>083-090>101-281400-
SOUTHEAST KANSAS

CITY           SKY/WX    TMP DP  RH WIND       PRES   REMARKS
CHANUTE        CLEAR     38  27  64 S16       30.06F WCI  29
COFFEYVILLE    CLEAR     39  28  64 S16G23    30.10F WCI  30
HUTCHINSON     PTCLDY    32  25  75 S7        29.98F
MEDICINE LODGE   N/A     29  25  85 CALM      30.00F
NEWTON         CLEAR     37  23  56 S17       29.99S WCI  28
PARSONS        CLEAR     39  28  64 S15G22    30.10F WCI  31
WICHITA INTL   PTCLDY    36  26  67 S10       30.01S WCI  28
WICHITA JABRA  CLEAR     39  27  62 S17       29.99F WCI  30
WICHITA MCCONL CLEAR     38  27  63 S14       30.01F WCI  30
WINFIELD       CLEAR     38  27  64 S13       30.05F WCI  30
$$

KSZ007>012-019>026-033>040-048>060-102>105-281400-
NORTHEAST KANSAS

CITY           SKY/WX    TMP DP  RH WIND       PRES   REMARKS
CONCORDIA      PTCLDY    33  26  75 SW8       29.91S
EMPORIA        CLEAR     31  24  75 S14       29.99F WCI  21
LAWRENCE       CLEAR     35  24  64 S10       30.02F WCI  27
MANHATTAN      CLEAR     35  26  69 SW12      29.96S WCI  27
MARYSVILLE     CLEAR     32  27  80 S8        29.92F
OLATHE IND     CLEAR     33  25  72 S12       30.02F WCI  24
OLATHE EXE     CLEAR     34  25  69 S12       30.01F WCI  25
SALINA         CLEAR     35  27  72 S15       29.95F WCI  25
TOPEKA BILLARD CLEAR     36  24  62 S8        30.00F
TOPEKA FORBES  CLEAR     36  24  62 S12       29.98F WCI  28
$$



USA.gov is the U.S. government's official web portal to all federal, state and local government web resources and services.